Blue Canyon, CA

10:05 AM PDT on April 27, 2017 (GMT -0700)
Blue Canyon-Nyack

Weather History for KBLU - May, 2013

Change the Weather History Date:

Thursday, May 16, 2013

  Actual Average Record
Temperature  
Mean Temperature 48 °F -  
Max Temperature 52 °F 61 °F 81 °F (2008)
Min Temperature 44 °F 43 °F 26 °F (2011)
Degree Days  
Heating Degree Days 18    
Moisture  
Dew Point 41 °F    
Average Humidity 81    
Maximum Humidity 93    
Minimum Humidity 56    
Precipitation  
Precipitation 0.07 in - - ()
Sea Level Pressure  
Sea Level Pressure 29.97 in    
Wind  
Wind Speed 7 mph (SSE)    
Max Wind Speed 13 mph    
Max Gust Speed 20 mph    
Visibility 10 miles    
Events Rain    
Averages and records for this station are not official NWS values.
T = Trace of Precipitation, MM = Missing Value Source: NWS Daily Summary

Daily Weather History Graph

Daily Weather History Graph

Search for Another Location

Airport or City:

Trip Planner

Search our weather history database for the weather conditions in past years. The results will help you decide how hot, cold, wet, or windy it might be!

Date:

Astronomy

May. 16, 2013 Rise Set
Actual Time 5:48 AM PDT 8:10 PM PDT
Civil Twilight 5:17 AM PDT 8:41 PM PDT
Nautical Twilight 4:40 AM PDT 9:18 PM PDT
Astronomical Twilight 3:59 AM PDT 10:00 PM PDT
Moon 11:25 AM PDT (5/16) 12:35 AM PDT (5/16)
Length of Visible Light 15h 23m
Length of Day
14h 22m
Waxing Crescent, 36% of the Moon is Illuminated
May 16
Waxing Crescent
May 17
First Quarter
May 24
Full
May 31
Last Quarter
Jun 8
New

Hourly Weather History & Observations

Time (PDT) Temp. Windchill Dew Point Humidity Pressure Visibility Wind Dir Wind Speed Gust Speed Precip Events Conditions
12:52 AM 51.1 °F - 36.0 °F 56% 29.91 in 10.0 mi ESE 3.5 mph - N/A   Mostly Cloudy
1:52 AM 51.1 °F - 36.0 °F 56% 29.89 in 10.0 mi SE 5.8 mph - N/A   Clear
2:52 AM 51.1 °F - 36.0 °F 56% 29.88 in 10.0 mi SE 5.8 mph - N/A   Clear
3:52 AM 50.0 °F - 37.0 °F 61% 29.88 in 10.0 mi SSE 5.8 mph - N/A   Overcast
4:52 AM 50.0 °F - 37.9 °F 63% 29.87 in 10.0 mi SSE 5.8 mph - N/A   Overcast
5:52 AM 50.0 °F - 37.9 °F 63% 29.87 in 10.0 mi South 8.1 mph - N/A   Overcast
6:52 AM 48.9 °F - 37.9 °F 66% 29.89 in 10.0 mi South 8.1 mph - 0.00 in Rain Light Rain
7:52 AM 46.9 °F - 41.0 °F 80% 29.92 in 10.0 mi South 10.4 mph - 0.01 in Rain Light Rain
8:33 AM 44.6 °F 38.8 °F 41.0 °F 87% 30.05 in 7.0 mi SSE 11.5 mph - 0.02 in Rain Light Rain
8:52 AM 44.1 °F 39.5 °F 41.0 °F 89% 29.96 in 6.0 mi SSE 8.1 mph - 0.04 in Rain Light Rain
9:07 AM 44.6 °F 40.2 °F 42.8 °F 93% 30.06 in 8.0 mi SSE 8.1 mph - 0.00 in Rain Light Rain
9:39 AM 44.6 °F 40.7 °F 42.8 °F 93% 30.06 in 9.0 mi SE 6.9 mph - 0.01 in   Overcast
9:52 AM 45.0 °F 41.8 °F 43.0 °F 93% 29.96 in 7.0 mi SE 5.8 mph - 0.01 in Rain Light Rain
10:21 AM 44.6 °F 41.4 °F 42.8 °F 93% 30.06 in 8.0 mi SE 5.8 mph - 0.01 in Rain Light Rain
10:52 AM 45.0 °F 40.1 °F 43.0 °F 93% 29.96 in 9.0 mi SSE 9.2 mph - 0.01 in Rain Light Rain
11:07 AM 44.6 °F 41.4 °F 42.8 °F 93% 30.06 in 9.0 mi Variable 5.8 mph - 0.00 in Rain Light Rain
11:52 AM 46.0 °F 41.9 °F 44.1 °F 93% 29.96 in 10.0 mi South 8.1 mph - 0.00 in   Overcast
12:05 PM 46.4 °F 41.5 °F 42.8 °F 87% 30.06 in 10.0 mi South 10.4 mph - N/A   Overcast
12:13 PM 44.6 °F 40.2 °F 42.8 °F 93% 30.06 in 10.0 mi South 8.1 mph - N/A   Overcast
12:52 PM 46.0 °F 41.9 °F 43.0 °F 89% 29.95 in 10.0 mi SSE 8.1 mph - N/A   Overcast
1:12 PM 46.4 °F 42.9 °F 44.6 °F 93% 30.06 in 10.0 mi South 6.9 mph 16.1 mph N/A   Overcast
1:40 PM 48.2 °F - 44.6 °F 87% 30.05 in 10.0 mi South 8.1 mph - N/A   Overcast
1:52 PM 48.9 °F - 44.1 °F 83% 29.94 in 10.0 mi South 11.5 mph - N/A   Overcast
2:11 PM 48.2 °F - 42.8 °F 82% 30.05 in 10.0 mi South 12.7 mph 19.6 mph N/A   Overcast
2:52 PM 51.1 °F - 43.0 °F 74% 29.91 in 10.0 mi South 9.2 mph 17.3 mph N/A   Overcast
3:52 PM 50.0 °F - 39.9 °F 68% 29.91 in 10.0 mi SSW 9.2 mph - N/A   Overcast
4:52 PM 50.0 °F - 37.9 °F 63% 29.91 in 10.0 mi South 9.2 mph - N/A   Overcast
5:52 PM 48.0 °F - 39.0 °F 71% 29.91 in 10.0 mi SW 6.9 mph - N/A   Overcast
6:30 PM 48.2 °F - 39.2 °F 71% 30.02 in 10.0 mi South 6.9 mph - N/A   Overcast
6:47 PM 48.2 °F - 41.0 °F 76% 30.02 in 10.0 mi South 6.9 mph - N/A   Overcast
6:52 PM 48.0 °F - 41.0 °F 77% 29.91 in 10.0 mi South 5.8 mph - N/A   Overcast
7:31 PM 46.4 °F 42.4 °F 41.0 °F 81% 30.02 in 10.0 mi South 8.1 mph - N/A   Overcast
7:52 PM 46.9 °F - 41.0 °F 80% 29.92 in 10.0 mi South 5.8 mph - N/A   Overcast
8:40 PM 46.4 °F 43.5 °F 42.8 °F 87% 30.02 in 10.0 mi SSE 5.8 mph - N/A   Overcast
8:52 PM 45.0 °F 41.2 °F 43.0 °F 93% 29.94 in 10.0 mi SSE 6.9 mph - N/A   Mostly Cloudy
9:52 PM 45.0 °F 41.2 °F 43.0 °F 93% 29.94 in 10.0 mi SSE 6.9 mph - N/A   Overcast
10:03 PM 44.6 °F 41.4 °F 42.8 °F 93% 30.02 in 10.0 mi SSE 5.8 mph - N/A   Overcast
10:52 PM 45.0 °F - 43.0 °F 93% 29.94 in 10.0 mi Calm Calm - N/A   Overcast
11:28 PM 44.6 °F 42.2 °F 42.8 °F 93% 30.02 in 10.0 mi Variable 4.6 mph - N/A   Mostly Cloudy
11:42 PM 44.6 °F - 42.8 °F 93% 30.02 in 10.0 mi Calm Calm - N/A   Overcast
11:52 PM 44.1 °F - 42.1 °F 93% 29.94 in 10.0 mi Calm Calm - N/A   Mostly Cloudy